DW0967 Weather Reports


Display with metric or nautical units.
time (UTC)temp
F
wind
direction
speed
MPH
gust
MPH
rain 1hr
in
rain 24hr
in
rain mn
in
humidity
%
barometer
mb
20260504130204 54 293 2.0 5.0 0.00 0.00 0.00 32 1011.7
20260504110704 50 259 1.0 3.0 0.00 0.00 0.00 36 1011.7
20260504100204 48 226 1.0 2.0 0.00 0.00 0.00 40 1012.1
20260504080704 52 250 3.0 5.0 0.00 0.00 0.00 37 1012.9
20260504050204 60 269 5.0 9.0 0.00 0.00 0.00 30 1013.7
20260504044204 60 308 3.0 5.0 0.00 0.00 0.00 31 1013.7
20260504043704 60 293 3.0 7.0 0.00 0.00 0.00 31 1013.8
20260504040204 61 272 3.0 8.0 0.00 0.00 0.00 32 1014.1
20260504034704 61 262 3.0 7.0 0.00 0.00 0.00 31 1014.2
20260504034204 61 263 3.0 6.0 0.00 0.00 0.00 30 1014.2
20260504031704 62 301 3.0 10.0 0.00 0.00 0.00 30 1014.2
20260504030704 61 259 3.0 5.0 0.00 0.00 0.00 31 1014.2
20260504030204 61 258 2.0 6.0 0.00 0.00 0.00 31 1014.2
20260504024704 60 199 2.0 6.0 0.00 0.00 0.00 34 1014.0
20260504024204 60 208 2.0 3.0 0.00 0.00 0.00 34 1014.0
20260504023704 60 168 2.0 3.0 0.00 0.00 0.00 35 1014.1
20260504023204 60 145 1.0 3.0 0.00 0.00 0.00 35 1014.0
20260504021704 60 145 1.0 3.0 0.00 0.00 0.00 34 1014.1
20260504021204 61 122 0.0 2.0 0.00 0.00 0.00 36 1014.1
20260504014704 62 105 0.0 1.0 0.00 0.00 0.00 32 1013.8
20260504014204 63 105 1.0 3.0 0.00 0.00 0.00 30 1013.8
20260504013704 63 105 1.0 2.0 0.00 0.00 0.00 29 1013.7
20260504013206 63 105 1.0 3.0 0.00 0.00 0.00 29 1013.7
20260504011704 65 107 1.0 3.0 0.00 0.00 0.00 28 1013.8
20260504010704 65 95 2.0 7.0 0.00 0.00 0.00 28 1013.6
20260504001704 65 50 5.0 12.0 0.00 0.00 0.00 28 1014.0
20260503234704 65 341 11.0 16.0 0.00 0.00 0.00 27 1014.3
20260503233704 65 356 8.0 15.0 0.00 0.00 0.00 27 1013.7
20260503233204 66 20 13.0 22.0 0.00 0.00 0.00 27 1013.6
20260503231204 68 5 3.0 12.0 0.00 0.00 0.00 24 1013.3
20260503224705 68 14 7.0 12.0 0.00 0.00 0.00 23 1013.5
20260503224204 68 340 6.0 14.0 0.00 0.00 0.00 23 1013.6
20260503221704 70 338 13.0 21.0 0.00 0.00 0.00 21 1013.7
20260503220704 70 318 11.0 16.0 0.00 0.00 0.00 21 1014.0
20260503220204 69 336 12.0 22.0 0.00 0.00 0.00 21 1013.9
20260503214704 70 344 14.0 21.0 0.00 0.00 0.00 21 1014.0
20260503213204 69 8 11.0 18.0 0.00 0.00 0.00 20 1014.2
20260503211704 70 45 3.0 14.0 0.00 0.00 0.00 19 1014.6
20260503211204 70 62 5.0 9.0 0.00 0.00 0.00 20 1014.6
20260503204704 71 14 3.0 10.0 0.00 0.00 0.00 20 1014.9
20260503203204 71 65 4.0 10.0 0.00 0.00 0.00 19 1015.0
20260503200703 70 66 7.0 10.0 0.00 0.00 0.00 20 1015.6
20260503200204 70 83 5.0 12.0 0.00 0.00 0.00 20 1015.7
20260503194705 71 74 2.0 3.0 0.00 0.00 0.00 20 1015.8
20260503193704 71 93 3.0 7.0 0.00 0.00 0.00 20 1015.9
20260503193205 70 105 3.0 8.0 0.00 0.00 0.00 23 1016.0
20260503190704 70 108 3.0 8.0 0.00 0.00 0.00 20 1016.2
20260503183703 68 29 2.0 3.0 0.00 0.00 0.00 19 1016.8
20260503180704 70 129 5.0 9.0 0.00 0.00 0.00 22 1017.3
20260503180204 70 66 3.0 10.0 0.00 0.00 0.00 23 1017.4
20260503174705 70 175 3.0 7.0 0.00 0.00 0.00 23 1017.8
20260503173704 68 257 2.0 9.0 0.00 0.00 0.00 21 1018.0
20260503171204 66 65 0.0 6.0 0.00 0.00 0.00 25 1018.4
20260503170704 66 42 2.0 7.0 0.00 0.00 0.00 26 1018.4
20260503170203 65 166 2.0 5.0 0.00 0.00 0.00 24 1018.5